[[{"header":{"parameterUnit":"m.s-1","parameterCategory":1,"la1":30.2991,"la2":30.254,"lo1":-89.0895,"lo2":-89.0444,"dy":0.0017,"dx":0.0017,"nx":28,"ny":28,"refTime":"2025-12-18T09:00:00:Z","depth":0,"parameterNumber":2,"parameterNumberName":"U-component_of_WINDS"},"data":[0,0,0,0,0,0,0,0,0,0,0,0,0,0,0,0,0,0,0,0,0,0,0,0,0,0,0,0,0,0,0,0,0,0,0,0,0,0,0,0,0,0,0,0,0,0,0,0,0,0,0,0,0,0,0,0,0,0,-2.2191,-2.2192,0,-2.2226,-2.2226,-2.2227,-2.2192,-2.219,-2.2189,-2.2188,-2.2224,-2.2226,-2.2229,0,0,0,0,0,0,0,0,0,0,0,0,0,-2.2096,-2.2098,-2.2191,-2.2192,-2.2192,-2.2226,-2.2226,-2.2227,-2.2192,-2.219,-2.2189,-2.2187,-2.2224,-2.2226,-2.2229,0,0,0,0,0,0,0,0,0,0,0,0,0,-2.2135,-2.2099,-2.2191,-2.2179,-2.2178,-2.2226,-2.2226,-2.2227,-2.2192,-2.219,-2.2188,-2.2186,-2.2223,-2.2226,-2.2229,-2.2291,0,0,-2.224,-2.2241,0,0,0,0,0,0,0,0,-2.2133,-2.2138,-2.218,-2.218,-2.2179,-2.2202,-2.2206,-2.2248,-2.2193,-2.2187,-2.2188,-2.2185,-2.2219,-2.2222,-2.2233,-2.2293,-2.2294,-2.224,-2.2242,-2.2243,-2.2244,0,0,0,0,0,0,0,-2.213,-2.2137,-2.2205,-2.2181,-2.218,-2.2172,-2.2175,-2.2214,-2.2214,-2.2187,-2.2185,-2.2189,-2.2218,-2.223,-2.2234,-2.2295,-2.224,-2.2243,-2.2245,-2.2246,-2.2406,-2.2408,0,0,0,0,0,0,-2.2129,-2.2135,-2.2204,-2.2206,-2.215,-2.2175,-2.2179,-2.2197,-2.2213,-2.2214,-2.2191,-2.2188,-2.2225,-2.223,-2.2235,-2.2307,-2.2243,-2.2246,-2.2248,-2.2403,-2.2406,-2.2408,0,0,0,0,0,0,-2.2127,-2.2135,-2.2202,-2.217,-2.2178,-2.2179,-2.22,-2.2199,-2.2211,-2.2216,-2.2216,-2.2203,-2.2224,-2.223,-2.2277,-2.2308,-2.2248,-2.2251,-2.2401,-2.2404,-2.2407,-2.2453,0,0,0,0,0,0,-2.2124,-2.2135,-2.2158,-2.217,-2.2179,-2.2244,-2.2202,-2.2201,-2.2216,-2.2212,-2.2228,-2.2228,-2.2223,-2.2272,-2.228,-2.2312,-2.2254,-2.2398,-2.2402,-2.2406,-2.2449,-2.2457,-2.2465,0,0,0,0,0,-2.2121,-2.217,-2.2159,-2.2168,-2.2209,-2.2246,-2.2251,-2.2243,-2.2219,-2.2242,-2.2246,-2.2228,-2.2304,-2.2277,-2.2286,-2.2319,-2.2396,-2.2401,-2.2406,-2.2445,-2.2456,-2.2465,0,0,0,0,0,0,-2.2162,-2.2171,-2.216,-2.2214,-2.2229,-2.224,-2.2269,-2.2255,-2.2277,-2.2272,-2.2262,-2.2266,-2.2315,-2.2322,-2.2292,-2.2379,-2.2346,-2.2353,-2.2373,-2.2383,-2.2391,-2.2388,-2.2257,0,0,0,0,0,-2.2177,-2.2206,-2.2213,-2.2261,-2.2269,-2.2268,-2.2284,-2.2276,-2.2291,-2.2298,-2.2305,-2.232,-2.2348,-2.2366,-2.2391,-2.245,-2.2452,-2.2477,-2.2485,-2.2492,-2.2497,-2.2528,-2.2538,-2.2425,-2.2425,-2.2425,0,0,-2.2209,-2.2218,-2.2237,-2.2269,-2.228,-2.231,-2.2273,-2.2307,-2.2329,-2.2303,-2.2347,-2.2353,-2.237,-2.2422,-2.2446,-2.2429,-2.2529,-2.2498,-2.2503,-2.2505,-2.2534,-2.2545,-2.2554,-2.2428,-2.2428,-2.2427,0,0,-2.2282,-2.2293,-2.2332,-2.2344,-2.236,-2.2359,-2.2369,-2.2382,-2.2384,-2.2428,-2.2409,-2.2435,-2.2483,-2.2495,-2.2508,-2.2585,-2.2569,-2.2594,-2.2636,-2.2666,-2.2675,-2.2683,-2.2709,-2.2719,-2.26,-2.26,-2.26,0,-2.232,-2.2364,-2.2355,-2.239,-2.2404,-2.2382,-2.2422,-2.2433,-2.2458,-2.2468,-2.245,-2.2508,-2.2518,-2.2572,-2.2591,-2.2603,-2.2613,-2.2592,-2.2674,-2.2682,-2.2689,-2.2714,-2.2724,-2.2603,-2.2603,-2.2603,-2.2602,0,-2.2409,-2.244,-2.2471,-2.2494,-2.2512,-2.2549,-2.2546,-2.2565,-2.2556,-2.2557,-2.2602,-2.2613,-2.264,-2.2652,-2.2645,-2.2706,-2.2695,-2.2676,-2.2642,-2.2703,-2.2726,-2.2736,-2.2607,-2.2606,-2.2605,-2.2605,0,0,-2.2509,-2.2526,-2.2537,-2.2547,-2.2563,-2.2587,-2.2624,-2.2649,-2.2665,-2.2683,-2.2713,-2.2753,-2.2735,-2.2749,-2.2743,-2.2769,-2.2828,-2.2746,-2.2746,-2.276,-2.2895,-2.2908,-2.2919,-2.2818,-2.282,-2.2821,-2.2893,0,-2.2581,-2.2643,-2.2636,-2.2696,-2.2724,-2.2703,-2.2734,-2.2748,-2.275,-2.2774,-2.2776,-2.2804,-2.2779,-2.2787,-2.2812,-2.2816,-2.2855,-2.2811,-2.2845,-2.2846,-2.284,-2.2932,-2.2946,-2.3013,-2.2902,-2.2904,-2.2905,0,-2.2674,-2.2694,-2.2756,-2.2767,-2.2779,-2.2807,-2.2829,-2.2853,-2.2868,-2.2868,-2.2883,-2.2872,-2.2908,-2.2875,-2.2924,-2.2894,-2.2908,-2.2912,-2.2914,-2.2916,-2.2878,-2.2935,-2.3034,-2.3044,-2.2919,-2.2918,-2.2917,0,-2.2738,-2.2781,-2.2823,-2.2833,-2.2847,-2.2867,-2.2875,-2.2887,-2.2903,-2.2923,-2.2933,-2.2957,-2.297,-2.2989,-2.2984,-2.2961,-2.3035,-2.3001,-2.3034,-2.3035,-2.305,-2.3049,-2.3152,-2.3062,-2.3061,-2.3061,-2.3061,0,-2.2819,-2.2858,-2.2852,-2.2878,-2.292,-2.2912,-2.2954,-2.2959,-2.297,-2.2997,-2.2981,-2.3006,-2.2999,-2.3024,-2.3021,-2.3061,-2.3068,-2.3068,-2.3066,-2.3068,-2.3068,-2.3076,-2.3071,-2.3064,-2.3063,-2.3063,-2.3062,0,-2.2898,-2.2896,-2.294,-2.295,-2.2954,-2.2984,-2.2993,-2.3017,-2.3018,-2.3051,-2.3059,-2.306,-2.3088,-2.3086,-2.3118,-2.3116,-2.3166,-2.3159,-2.316,-2.3158,-2.3191,-2.3188,-2.3302,-2.3316,-2.3218,-2.3219,-2.322,0,-2.2948,-2.2977,-2.299,-2.3007,-2.3015,-2.3042,-2.3057,-2.305,-2.3067,-2.3086,-2.3107,-2.3134,-2.3155,-2.3201,-2.3205,-2.3229,-2.3223,-2.3261,-2.3226,-2.3227,-2.3221,-2.3219,-2.3221,-2.3267,-2.3269,-2.3269,-2.327,0,-2.3039,-2.3036,-2.3059,-2.3081,-2.31,-2.3118,-2.3134,-2.3148,-2.3142,-2.3162,-2.319,-2.3207,-2.3239,-2.3265,-2.3288,-2.3296,-2.3282,-2.3281,-2.329,-2.3292,-2.329,-2.329,-2.3177,-2.3278,-2.3278,-2.3277,-2.3277,-2.3276,-2.3104,-2.3128,-2.3141,-2.3166,-2.3177,-2.3193,-2.3215,-2.3219,-2.3242,-2.3267,-2.3262,-2.3294,-2.3307,-2.3337,-2.3346,-2.3371,-2.3357,-2.337,-2.3373,-2.3376,-2.3379,-2.3288,-2.3375,-2.3375,-2.3375,-2.3375,-2.3375,0,-2.3191,-2.3199,-2.3222,-2.3245,-2.3265,-2.325,-2.3267,-2.3285,-2.3312,-2.3326,-2.3347,-2.3379,-2.3405,-2.341,-2.3435,-2.3453,-2.3447,-2.346,-2.3457,-2.3459,-2.3391,-2.338,-2.3464,-2.3464,-2.3464,-2.3464,-2.3464,-2.3464,-2.3239,-2.3279,-2.3278,-2.3323,-2.333,-2.336,-2.3371,-2.3385,-2.3395,-2.3432,-2.3453,-2.3456,-2.3467,-2.3491,-2.3514,-2.3515,-2.3524,-2.3539,-2.3537,-2.3473,-2.3464,-2.3455,-2.3445,-2.3541,-2.3541,-2.3603,-2.3603,-2.3604]},{"header":{"parameterUnit":"m.s-1","parameterCategory":1,"la1":30.2991,"la2":30.254,"lo1":-89.0895,"lo2":-89.0444,"dy":0.0017,"dx":0.0017,"nx":28,"ny":28,"refTime":"2025-12-18T09:00:00:Z","depth":0,"parameterNumber":3,"parameterNumberName":"V-component_of_WINDS"},"data":[0,0,0,0,0,0,0,0,0,0,0,0,0,0,0,0,0,0,0,0,0,0,0,0,0,0,0,0,0,0,0,0,0,0,0,0,0,0,0,0,0,0,0,0,0,0,0,0,0,0,0,0,0,0,0,0,0,0,1.4695,1.4696,0,1.4781,1.4782,1.4783,1.4804,1.4803,1.4803,1.4802,1.4884,1.4887,1.4889,0,0,0,0,0,0,0,0,0,0,0,0,0,1.4548,1.4551,1.4695,1.4696,1.4698,1.478,1.4782,1.4783,1.4804,1.4803,1.4802,1.4802,1.4883,1.4886,1.489,0,0,0,0,0,0,0,0,0,0,0,0,0,1.462,1.4551,1.4695,1.4718,1.4721,1.478,1.4782,1.4783,1.4804,1.4803,1.4802,1.4802,1.4882,1.4886,1.489,1.4931,0,0,1.4902,1.4904,0,0,0,0,0,0,0,0,1.4616,1.4626,1.4714,1.4717,1.472,1.4781,1.476,1.4832,1.4804,1.4772,1.4802,1.4801,1.485,1.4857,1.4874,1.4935,1.4938,1.4903,1.4905,1.4907,1.4908,0,0,0,0,0,0,0,1.4611,1.4622,1.4729,1.4715,1.4719,1.4723,1.4733,1.4774,1.4814,1.4775,1.4777,1.4787,1.4852,1.487,1.4876,1.4939,1.4903,1.4906,1.4909,1.491,1.5041,1.5042,0,0,0,0,0,0,1.4603,1.4618,1.4726,1.4732,1.4665,1.4727,1.4737,1.4762,1.4814,1.4821,1.4787,1.4787,1.4864,1.4872,1.4879,1.4933,1.4907,1.4911,1.4913,1.504,1.5041,1.5042,0,0,0,0,0,0,1.4599,1.4612,1.4723,1.4675,1.469,1.473,1.4758,1.4764,1.4783,1.4824,1.483,1.4799,1.4863,1.4874,1.4919,1.4936,1.4912,1.4916,1.5038,1.504,1.5041,1.5039,0,0,0,0,0,0,1.4595,1.4611,1.4627,1.4676,1.4692,1.4762,1.4759,1.4766,1.479,1.4791,1.4837,1.4843,1.4864,1.4913,1.4923,1.4941,1.4919,1.5037,1.5039,1.5041,1.5037,1.504,1.5042,0,0,0,0,0,1.459,1.4621,1.4628,1.4641,1.4714,1.4763,1.4772,1.4797,1.4792,1.4808,1.4835,1.4842,1.4932,1.4917,1.4929,1.4948,1.5036,1.5038,1.5041,1.5036,1.5039,1.5042,0,0,0,0,0,0,1.4571,1.4628,1.4636,1.4684,1.4719,1.4766,1.4788,1.4799,1.4834,1.4833,1.486,1.487,1.4914,1.4935,1.4918,1.4992,1.4984,1.4989,1.4977,1.498,1.4982,1.4977,1.4923,0,0,0,0,0,1.4573,1.461,1.4657,1.4695,1.4712,1.4747,1.4769,1.4786,1.4822,1.4836,1.4865,1.4899,1.4936,1.4959,1.4994,1.504,1.5051,1.506,1.5062,1.5064,1.5068,1.5096,1.5101,1.505,1.505,1.505,0,0,1.4577,1.4612,1.4633,1.4692,1.4721,1.4758,1.4759,1.4797,1.4825,1.4841,1.4887,1.491,1.4949,1.4996,1.5018,1.5015,1.5084,1.5067,1.5068,1.5071,1.5099,1.5104,1.5108,1.5051,1.5051,1.5051,0,0,1.4603,1.4633,1.467,1.4699,1.4744,1.4768,1.4776,1.4823,1.484,1.4887,1.4901,1.4933,1.4994,1.5023,1.5045,1.5085,1.5093,1.5095,1.5108,1.5135,1.5139,1.5143,1.5159,1.5165,1.5099,1.5099,1.5099,0,1.4601,1.4659,1.4686,1.4725,1.4751,1.4771,1.4808,1.4835,1.4887,1.4905,1.4901,1.4981,1.5008,1.5063,1.5074,1.509,1.5102,1.5091,1.5137,1.5141,1.5145,1.5161,1.5166,1.5099,1.5099,1.5099,1.5099,0,1.4656,1.4696,1.4719,1.4774,1.4802,1.4839,1.4873,1.4898,1.4912,1.4936,1.4984,1.5018,1.5063,1.5076,1.5089,1.5134,1.5131,1.5132,1.5125,1.515,1.5165,1.5171,1.51,1.5099,1.5099,1.5099,0,0,1.4671,1.4743,1.4751,1.4778,1.4829,1.486,1.4899,1.4944,1.4966,1.5002,1.5036,1.5089,1.5091,1.5117,1.5133,1.5157,1.5189,1.5155,1.5156,1.5162,1.5243,1.5243,1.525,1.5195,1.5196,1.5197,1.524,0,1.4705,1.4778,1.4805,1.4864,1.4902,1.4922,1.4956,1.4991,1.5015,1.505,1.5075,1.5113,1.5112,1.5128,1.5152,1.518,1.5206,1.5177,1.5226,1.5228,1.5218,1.5257,1.5257,1.5297,1.5246,1.5247,1.5248,0,1.4754,1.4795,1.4858,1.4909,1.4925,1.4956,1.5001,1.5034,1.5075,1.509,1.5121,1.5136,1.5177,1.5167,1.5225,1.5205,1.5227,1.5243,1.5246,1.5252,1.524,1.5266,1.531,1.5316,1.5257,1.5256,1.5256,0,1.4762,1.4832,1.488,1.4901,1.496,1.4982,1.5007,1.5047,1.5073,1.5112,1.513,1.5172,1.5195,1.5227,1.5254,1.5244,1.531,1.5302,1.5325,1.5324,1.5338,1.5337,1.5387,1.535,1.535,1.535,1.5349,0,1.4798,1.4836,1.4885,1.4914,1.4959,1.4989,1.5032,1.5058,1.5094,1.5129,1.5147,1.5179,1.5212,1.5248,1.5268,1.5314,1.5324,1.5338,1.5343,1.5337,1.5336,1.5353,1.5351,1.5351,1.5351,1.535,1.535,0,1.4814,1.4848,1.4902,1.4955,1.4969,1.4999,1.5044,1.5073,1.5099,1.5143,1.5155,1.5194,1.5238,1.5268,1.5322,1.5337,1.5387,1.5391,1.5374,1.5377,1.54,1.5398,1.5463,1.5474,1.5428,1.5428,1.5428,0,1.4835,1.4866,1.4923,1.4949,1.4976,1.5016,1.5045,1.5076,1.5105,1.5155,1.5179,1.5224,1.5263,1.5331,1.5364,1.5407,1.5413,1.5433,1.5419,1.5414,1.5416,1.5414,1.5418,1.5435,1.5436,1.5436,1.5436,0,1.487,1.4886,1.4927,1.4975,1.5009,1.5048,1.5086,1.5106,1.5144,1.5175,1.5222,1.5252,1.531,1.5355,1.5402,1.5427,1.5438,1.5441,1.5449,1.5443,1.5434,1.5441,1.5382,1.5439,1.5439,1.5438,1.5438,1.5438,1.489,1.492,1.4966,1.5012,1.5045,1.5082,1.5113,1.5144,1.5184,1.5236,1.5252,1.53,1.5342,1.5406,1.5432,1.547,1.5468,1.5479,1.5482,1.5485,1.5486,1.5427,1.5478,1.5478,1.5478,1.5478,1.5478,0,1.4928,1.496,1.5002,1.5057,1.5094,1.5104,1.5147,1.5177,1.5221,1.5259,1.5298,1.5353,1.5397,1.5435,1.5481,1.5505,1.5511,1.5516,1.5515,1.5521,1.5484,1.5474,1.551,1.551,1.551,1.551,1.551,1.551,1.4952,1.5004,1.5026,1.5094,1.5125,1.5175,1.52,1.5234,1.5266,1.5327,1.5365,1.539,1.5429,1.5478,1.552,1.553,1.5547,1.5551,1.5562,1.5527,1.5523,1.552,1.551,1.5554,1.5554,1.5596,1.5596,1.5596]}]]